Regional Weather Roundup
Issued by NWS

Home | Current Version | Previous Version | Text Only | Print | Product List | Glossary On
Versions: 1 2 3 4 5 6 7 8 9 10 11 12 13 14 15 16 17 18 19 20 21 22 23 24 25 26 27 28 29 30 31 32 33 34 35 36 37 38 39 40 41 42 43 44 45 46 47 48 49 50
000
ASUS43 KMKX 230110
RWRWI

WISCONSIN REGIONAL WEATHER ROUNDUP
NATIONAL WEATHER SERVICE MILWAUKEE/SULLIVAN WI
700 PM CST SUN JAN 22 2017

NOTE: "FAIR" INDICATES FEW OR NO CLOUDS BELOW 12,000 FEET WITH NO
SIGNIFICANT WEATHER AND/OR OBSTRUCTIONS TO VISIBILITY.

WIZ001-002-006>008-014>016-023>028-230200-
NORTHWEST WISCONSIN

CITY           SKY/WX    TMP DP  RH WIND       PRES   REMARKS
SUPERIOR ARPT  CLOUDY    35  35 100 CALM      29.73F FOG
ASHLAND        FOG       34  34 100 CALM      29.73S VSB 1
HAYWARD        CLOUDY    36  34  92 CALM      29.72R FOG
SIREN          CLOUDY    36  36  99 NW3       29.74S FOG
CUMBERLAND     FOG       34  32  93 CALM      29.72S VSB 1/2
RICE LAKE      FOG       35  35  99 CALM      29.74S VSB 1/2
CHETEK         FOG       35  35 100 CALM      29.73S VSB 1/2
LADYSMITH      CLOUDY    36  35  98 NW5       29.73S FOG     WCI  32
EAU CLAIRE     CLOUDY    36  34  92 CALM      29.73R
MENOMONIE        N/A    N/A N/A N/A MISG        N/A
NEW RICHMOND   CLOUDY    35  35 100 W3        29.75R
OSCEOLA        CLOUDY    37  37 100 W3        29.77S
$$

WIZ003>005-009-010-017-018-230200-
NORTH CENTRAL WISCONSIN

CITY           SKY/WX    TMP DP  RH WIND       PRES   REMARKS
MANITOWISH WTR CLOUDY    33  33 100 NW3       29.69R
ARBOR VITAE    CLOUDY    37  36  96 NW3       29.69R
WOODRUFF       CLOUDY    37  36  96 NW3       29.69R
RHINELANDER    CLOUDY    36  36 100 NW5       29.68R FOG     WCI  32
EAGLE RIVER    CLOUDY    34  34 100 NW3       29.67S
LAND O LAKES   CLOUDY    35  35 100 NW6       29.69S FOG     WCI  30
PHILLIPS       CLOUDY    33  33 100 CALM      29.70R
TOMAHAWK       CLOUDY    35  34  96 NW5       29.70R FOG     WCI  30
MEDFORD        FOG       33  33  99 NW5       29.69S VSB 3/4 WCI  29
MERRILL        CLOUDY    36  36 100 NW5         N/A  WCI  32
$$

WIZ029-030-035-036-043>047-230200-
CENTRAL WISCONSIN

CITY           SKY/WX    TMP DP  RH WIND       PRES   REMARKS
WAUSAU         CLOUDY    36  35  96 NW6       29.67S WCI  31
MOSINEE        NOT AVBL
MARSHFIELD     FOG       34  33  96 NW6       29.68S VSB 1/2 WCI  29
STEVENS POINT  CLOUDY    35  35 100 W3        29.70R FOG
WAUPACA        CLOUDY    38  38  97 CALM      29.69S
WAUTOMA        CLOUDY    36  35  96 NW5       29.70R WCI  32
WISC RAPIDS    CLOUDY    36  35  96 NW7       29.71R WCI  30
CAMP DOUGLAS   FOG       35  35  99 W5        29.71S VSB 1   WCI  31
$$

WIZ011>013-019>022-031-037>040-048>050-230200-
NORTHEAST WISCONSIN

CITY           SKY/WX    TMP DP  RH WIND       PRES   REMARKS
ANTIGO         CLOUDY    35  35 100 NW6       29.67S WCI  30
SHAWANO        CLOUDY    38  37  96 CALM      29.69R
OCONTO         CLOUDY    34  33  99 CALM      29.69R VSB 1/4
STURGEON BAY   FOG       36  36 100 CALM      29.69R VSB 1/4
GREEN BAY      FOG       37  37 100 S3        29.69R VSB 1/4
MANITOWOC      FOG       36  36 100 MISG      29.69S VSB 1
APPLETON       CLOUDY    36  36 100 W6        29.67R FOG     WCI  31
CLINTONVILLE   CLOUDY    36  36 100 W3        29.68S
OSHKOSH        CLOUDY    37  35  92 W5        29.68S WCI  33
$$

WIZ032>034-041-042-053>061-230200-
SOUTHWEST WISCONSIN

CITY           SKY/WX    TMP DP  RH WIND       PRES   REMARKS
LA CROSSE      CLOUDY    39  34  82 NW6       29.74R WCI  35
SPARTA         CLOUDY    35  35 100 W3        29.74R FOG
VIROQUA        CLOUDY    34  34 100 NW9       29.71R VSB 1/2 WCI  27
BOSCOBEL       CLOUDY    39  36  89 CALM      29.74R
PRAIRIE DU CHI CLOUDY    37  35  93 NW6       29.73S FOG     WCI  32
PLATTEVILLE    CLOUDY    37  37 100 NW8       29.70S WCI  30
$$

WIZ056-057-062-063-064-067-068-230200-
SOUTH CENTRAL WISCONSIN

CITY           SKY/WX    TMP DP  RH WIND       PRES   REMARKS
REEDSBURG      CLOUDY    36  36 100 W5        29.71R WCI  32
BARABOO/DELLS  CLOUDY    36  36  99 W3        29.70S FOG
LONE ROCK      CLOUDY    38  35  89 W6        29.72R WCI  33
MINERAL POINT  CLOUDY    37  37 100 NW9       29.69S FOG     WCI  31
MADISON        CLOUDY    38  36  92 NW6       29.70R WCI  33
MIDDLETON      CLOUDY    38  38 100 NW6       29.70S WCI  34
WATERTOWN      CLOUDY    38  38  99 N5        29.68S WCI  34
MONROE         CLOUDY    37  36  93 N6        29.67S WCI  33
JANESVILLE     CLOUDY    39  39 100 CALM      29.68R FOG
$$

WIZ051-052-058>065-066-070>072-230200-
SOUTHEAST WISCONSIN

CITY           SKY/WX    TMP DP  RH WIND       PRES   REMARKS
MILWAUKEE      CLOUDY    42  36  79 NW6       29.67S
WAUKESHA       PTCLDY    34  32  93 NW5       29.68S WCI  30
MILWAUKEE/TIMM CLOUDY    37  34  87 N8        29.69R WCI  31
RACINE         FOG       38  36  92 N5        29.68S VSB 1   WCI  34
KENOSHA        CLOUDY    40  36  86 N7        29.66S
FOND DU LAC    FLURRIES  38  34  85 MISG      29.68S
SHEBOYGAN      CLOUDY    37  35  92 CALM      29.68S
WEST BEND      CLOUDY    36  36 100 NW6       29.68S WCI  31
JUNEAU         CLOUDY    37  36  96 NW6       29.69F FOG     WCI  32
$$

LSZ147-162-230200-
LAKE SUPERIOR

STATION/POSITION TIME  TEMP    WIND        PRES    WAVE
                       AIR SEA DIR/SP/G            HT/PER
                 (UTC) (F)     (DEG/KT/KT) (MB)    (FT/S)
DEVILS ISLAND    0000   34     230/  5/  6 1007.0R
PORT WING        0040   35     160/  2/  2 1007.1R
SAXON HARBOR     0040   34      CALM  /  1 1006.8R
$$

LMZ867-665-643>646-230200-
LAKE MICHIGAN

STATION/POSITION TIME  TEMP    WIND        PRES    WAVE
                       AIR SEA DIR/SP/G            HT/PER
                 (UTC) (F)     (DEG/KT/KT) (MB)    (FT/S)
NORTHPORT PIER   0040   35        CALM     1005.4R
SISTER BAY       2305   34        CALM       N/A
KEWAUNEE LAKESHO 0048   37     300/  2/  5 1004.9R
SHEBOYGAN LAKESH 0000   37     330/  6/  7 1005.4R
PORT WASHINGTON  0040   38     330/  4/  9 1006.4R
KENOSHA   LAKESH 0000   38      10/  5/  7 1004.7
$$

TC  - TEMPERATURE IN CELSIUS
VSB - VISIBILITY IN STATUTE MILES
WCI - WIND CHILL INDEX
HX  - HEAT INDEX





USA.gov is the U.S. government's official web portal to all federal, state and local government web resources and services.